Location: Observatoire de Paris
(48.8363°N, 2.3365°E)
Time: 08:53:39
(UTC+01:00)

SR - All Passes

Search period start: 31 July 2021 00:00
Search period end: 10 August 2021 00:00
Orbit: 577 x 877 km, 66.7° (Epoch: 30 July)

Date Brightness Start Highest point End Pass type
(mag) Time Alt. Az. Time Alt. Az. Time Alt. Az.
31 Jul - 05:40:08 10° SE 05:42:56 14° ESE 05:45:42 10° ENE daylight
31 Jul - 07:18:27 10° SSW 07:24:14 74° ESE 07:29:43 10° NE daylight
31 Jul - 09:01:55 10° W 09:06:48 29° NW 09:11:27 10° NNE daylight
31 Jul - 10:48:27 10° NW 10:50:38 12° NNW 10:52:47 10° N daylight
31 Jul - 12:33:18 10° N 12:35:07 12° NNE 12:36:54 10° NNE daylight
31 Jul - 14:14:43 10° NNW 14:19:00 27° NE 14:22:57 10° E daylight
31 Jul - 15:56:38 10° NW 16:01:26 60° WSW 16:05:50 10° SSE daylight
01 Aug - 06:29:07 10° S 06:34:32 42° ESE 06:39:42 10° NE daylight
01 Aug - 08:11:11 10° WSW 08:16:40 44° NW 08:21:49 10° NNE daylight
01 Aug - 09:56:51 10° WNW 10:00:05 15° NNW 10:03:11 10° NNE daylight
01 Aug - 11:43:25 10° N 11:44:27 11° N 11:45:28 10° NNE daylight
01 Aug - 13:25:07 10° NNW 13:28:40 19° NNE 13:32:01 10° ENE daylight
01 Aug - 15:06:44 10° NNW 15:11:40 73° NE 15:16:09 10° SE daylight
01 Aug - 16:50:04 10° WNW 16:53:01 17° WSW 16:55:50 10° SW daylight
02 Aug - 05:40:27 10° SSE 05:44:58 24° ESE 05:49:19 10° ENE daylight
02 Aug - 07:20:53 10° SW 07:26:40 71° NW 07:32:06 10° NNE daylight
02 Aug - 09:05:28 10° W 09:09:38 21° NNW 09:13:36 10° NNE daylight
02 Aug - 10:52:31 10° NNW 10:53:46 11° N 10:55:01 10° N daylight
02 Aug - 12:35:32 10° NNW 12:38:11 14° NNE 12:40:44 10° NE daylight
02 Aug - 14:16:59 10° NNW 14:21:41 41° NE 14:25:59 10° ESE daylight
02 Aug - 15:59:21 10° NW 16:03:36 32° WSW 16:07:34 10° S daylight
03 Aug - 04:53:08 10° SE 04:55:34 13° ESE 04:57:59 10° ENE visible
03 Aug - 06:31:04 10° SSW 06:36:49 70° ESE 06:42:15 10° NE daylight
03 Aug - 08:14:24 10° W 08:19:21 30° NW 08:24:01 10° NNE daylight
03 Aug - 10:00:53 10° NW 10:03:08 12° NNW 10:05:19 10° N daylight
03 Aug - 11:45:57 10° N 11:47:36 11° N 11:49:12 10° NNE daylight
03 Aug - 13:27:20 10° NNW 13:31:30 26° NE 13:35:23 10° E daylight
03 Aug - 15:09:13 10° NW 15:14:01 64° WSW 15:18:24 10° SSE daylight
04 Aug - 05:41:47 10° S 05:47:08 40° ESE 05:52:13 10° NE daylight
04 Aug - 07:23:43 10° WSW 07:29:13 46° NW 07:34:23 10° NNE daylight
04 Aug - 09:09:17 10° WNW 09:12:35 16° NNW 09:15:44 10° NNE daylight
04 Aug - 10:56:06 10° N 10:56:56 10° N 10:57:46 10° N daylight
04 Aug - 12:37:45 10° NNW 12:41:09 18° NNE 12:44:24 10° ENE daylight
04 Aug - 14:19:20 10° NNW 14:24:13 68° NE 14:28:40 10° SE daylight
04 Aug - 16:02:30 10° WNW 16:05:37 18° WSW 16:08:35 10° SSW daylight
05 Aug - 04:53:14 10° SSE 04:57:35 22° ESE 05:01:47 10° ENE visible
05 Aug - 06:33:28 10° SW 06:39:14 75° NW 06:44:39 10° NNE daylight
05 Aug - 08:17:56 10° W 08:22:09 21° NNW 08:26:10 10° NNE daylight
05 Aug - 10:05:01 10° NNW 10:06:15 11° N 10:07:29 10° N daylight
05 Aug - 11:48:11 10° N 11:50:40 13° NNE 11:53:04 10° NE daylight
05 Aug - 13:29:35 10° NNW 13:34:12 39° NE 13:38:27 10° ESE daylight
05 Aug - 15:11:53 10° NW 15:16:11 34° WSW 15:20:11 10° S daylight
06 Aug - 04:06:12 10° SE 04:08:12 12° ESE 04:10:10 10° E visible
06 Aug - 05:43:41 10° SSW 05:49:25 66° ESE 05:54:48 10° NE daylight
06 Aug - 07:26:53 10° WSW 07:31:53 31° NW 07:36:35 10° NNE daylight
06 Aug - 09:13:20 10° NW 09:15:37 13° NNW 09:17:50 10° N daylight
06 Aug - 10:58:37 10° N 11:00:04 11° N 11:01:29 10° NNE daylight
06 Aug - 12:39:56 10° NNW 12:44:01 25° NE 12:47:49 10° E daylight
06 Aug - 14:21:46 10° NW 14:26:34 68° WSW 14:30:58 10° SSE daylight
07 Aug - 04:54:28 10° S 04:59:44 37° ESE 05:04:43 10° NE visible
07 Aug - 06:36:15 10° WSW 06:41:46 48° NW 06:46:56 10° NNE daylight
07 Aug - 08:21:43 10° WNW 08:25:05 16° NNW 08:28:17 10° NNE daylight
07 Aug - 10:08:47 10° N 10:09:24 10° N 10:10:01 10° N daylight
07 Aug - 11:50:22 10° NNW 11:53:40 17° NNE 11:56:46 10° ENE daylight
07 Aug - 13:31:54 10° NNW 13:36:45 64° NE 13:41:11 10° SE daylight
07 Aug - 15:14:58 10° WNW 15:18:13 19° WSW 15:21:18 10° SSW daylight
08 Aug - 04:06:01 10° SSE 04:10:12 21° ESE 04:14:14 10° ENE visible
08 Aug - 05:46:02 10° SW 05:51:48 79° NW 05:57:12 10° NE daylight
08 Aug - 07:30:23 10° W 07:34:40 22° NNW 07:38:44 10° NNE daylight
08 Aug - 09:17:30 10° NNW 09:18:43 11° N 09:19:57 10° N daylight
08 Aug - 11:00:50 10° N 11:03:09 13° NNE 11:05:24 10° NE daylight
08 Aug - 12:42:11 10° NNW 12:46:44 36° NE 12:50:54 10° ESE daylight
08 Aug - 14:24:24 10° NW 14:28:46 37° WSW 14:32:49 10° S daylight
09 Aug - 03:19:26 10° ESE 03:20:50 11° ESE 03:22:13 10° E visible
09 Aug - 04:56:19 10° SSW 05:02:00 62° ESE 05:07:20 10° NE visible
09 Aug - 06:39:23 10° WSW 06:44:25 32° NW 06:49:09 10° NNE daylight
09 Aug - 08:25:46 10° NW 08:28:06 13° NNW 08:30:22 10° N daylight
09 Aug - 10:11:19 10° N 10:12:32 11° N 10:13:46 10° NNE daylight
09 Aug - 11:52:33 10° NNW 11:56:31 23° NE 12:00:13 10° E daylight
09 Aug - 13:34:20 10° NW 13:39:07 73° WSW 13:43:31 10° SSE daylight
